When you browse on this site, cookies collect data to enhance your experience and personalize the content and advertising you see.
Visit our Privacy Policy to learn more. By continuing to use the site, you agree to this use of cookies and data.
  • In Switzerland
  • List of Countries
  • For 7 days
  • Water Temperature
  • Satellite Maps
  • Weather Map
  • Weather Widgets
  • user-avatar
    Login

    Hourly Weather Shiraz

    Today, 19 December, Wednesday

    Time Temperature Precipitation Wind Pressure Humidity
    00:00 +10°C° 0 mm 1 mps 638 mmHg 48%
    01:00 +9°C° 0 mm 1 mps 638 mmHg 49%
    02:00 +9°C° 0 mm 1 mps 638 mmHg 49%
    03:00 +9°C° 0 mm 1 mps 638 mmHg 50%
    04:00 +8°C° 0 mm 1 mps 638 mmHg 49%
    05:00 +8°C° 0 mm 1 mps 638 mmHg 49%
    06:00 +8°C° 0 mm 1 mps 638 mmHg 49%
    07:00 +6°C° 0 mm 0 mps 638 mmHg 49%
    08:00 +8°C° 0 mm 0 mps 638 mmHg 43%
    09:00 +10°C° 0 mm 0 mps 639 mmHg 37%
    10:00 +12°C° 0 mm 0 mps 640 mmHg 31%
    11:00 +13°C° 0 mm 0 mps 640 mmHg 29%
    12:00 +15°C° 0 mm 1 mps 640 mmHg 26%
    13:00 +16°C° 0 mm 1 mps 640 mmHg 24%
    14:00 +16°C° 0 mm 1 mps 640 mmHg 23%
    15:00 +16°C° 0 mm 1 mps 640 mmHg 23%
    16:00 +18°C° 0 mm 1 mps 640 mmHg 23%
    17:00 +15°C° 0 mm 1 mps 639 mmHg 29%
    18:00 +14°C° 0 mm 1 mps 639 mmHg 35%
    19:00 +11°C° 0 mm 0 mps 639 mmHg 41%
    20:00 +11°C° 0 mm 0 mps 639 mmHg 42%
    21:00 +10°C° 0 mm 0 mps 639 mmHg 42%
    22:00 +10°C° 0 mm 0 mps 638 mmHg 43%
    23:00 +9°C° 0 mm 0 mps 638 mmHg 44%

    Tomorrow, 20 December, Thursday

    Time Temperature Precipitation Wind Pressure Humidity
    00:00 +9°C° 0 mm 0 mps 638 mmHg 44%
    01:00 +9°C° 0 mm 0 mps 638 mmHg 45%
    02:00 +8°C° 0 mm 0 mps 638 mmHg 45%
    03:00 +8°C° 0 mm 0 mps 638 mmHg 45%
    04:00 +7°C° 0 mm 0 mps 637 mmHg 46%
    05:00 +7°C° 0 mm 0 mps 637 mmHg 46%
    06:00 +7°C° 0 mm 0 mps 637 mmHg 46%
    07:00 +7°C° 0 mm 0 mps 637 mmHg 45%
    08:00 +9°C° 0 mm 0 mps 638 mmHg 40%
    09:00 +11°C° 0 mm 0 mps 639 mmHg 34%
    10:00 +12°C° 0 mm 0 mps 640 mmHg 28%
    11:00 +14°C° 0 mm 1 mps 640 mmHg 25%
    12:00 +15°C° 0 mm 1 mps 640 mmHg 23%
    13:00 +16°C° 0 mm 1 mps 640 mmHg 20%
    14:00 +18°C° 0 mm 1 mps 640 mmHg 19%
    15:00 +18°C° 0 mm 1 mps 639 mmHg 19%
    16:00 +17°C° 0 mm 2 mps 639 mmHg 18%
    17:00 +16°C° 0 mm 1 mps 639 mmHg 23%
    18:00 +14°C° 0 mm 1 mps 638 mmHg 27%
    19:00 +12°C° 0 mm 1 mps 638 mmHg 32%
    20:00 +12°C° 0 mm 1 mps 638 mmHg 33%
    21:00 +11°C° 0 mm 1 mps 638 mmHg 33%
    22:00 +11°C° 0 mm 1 mps 638 mmHg 34%
    23:00 +10°C° 0 mm 1 mps 638 mmHg 35%

    Day after tomorrow, 21 December, Friday

    Time Temperature Precipitation Wind Pressure Humidity
    00:00 +10°C° 0 mm 1 mps 637 mmHg 35%
    01:00 +9°C° 0 mm 1 mps 637 mmHg 35%
    02:00 +9°C° 0 mm 1 mps 637 mmHg 35%
    03:00 +9°C° 0 mm 1 mps 636 mmHg 36%
    04:00 +8°C° 0 mm 1 mps 636 mmHg 36%
    05:00 +8°C° 0 mm 1 mps 636 mmHg 37%
    06:00 +8°C° 0 mm 1 mps 636 mmHg 38%
    07:00 +8°C° 0 mm 1 mps 636 mmHg 38%
    08:00 +10°C° 0 mm 1 mps 637 mmHg 36%
    09:00 +11°C° 0 mm 1 mps 638 mmHg 34%
    10:00 +13°C° 0 mm 1 mps 638 mmHg 32%
    11:00 +14°C° 0 mm 2 mps 638 mmHg 34%
    12:00 +14°C° 0 mm 3 mps 638 mmHg 36%
    13:00 +16°C° 0 mm 3 mps 638 mmHg 38%
    14:00 +15°C° 0 mm 4 mps 637 mmHg 40%
    15:00 +15°C° 0 mm 4 mps 637 mmHg 42%
    16:00 +14°C° 0 mm 4 mps 636 mmHg 44%
    17:00 +13°C° 0 mm 3 mps 636 mmHg 48%
    18:00 +12°C° 0 mm 3 mps 636 mmHg 53%
    19:00 +12°C° 0 mm 2 mps 636 mmHg 57%
    20:00 +10°C° 0 mm 2 mps 636 mmHg 59%
    21:00 +11°C° 0 mm 1 mps 635 mmHg 61%
    22:00 +10°C° 0 mm 1 mps 635 mmHg 63%
    23:00 +10°C° 0 mm 1 mps 635 mmHg 63%

    22 December, Saturday

    Time Temperature Precipitation Wind Pressure Humidity
    00:00 +9°C° 0 mm 1 mps 634 mmHg 64%
    01:00 +9°C° 0 mm 1 mps 634 mmHg 65%
    02:00 +8°C° 0 mm 1 mps 634 mmHg 65%
    03:00 +8°C° 0 mm 1 mps 633 mmHg 65%
    04:00 +7°C° 0 mm 1 mps 633 mmHg 66%
    05:00 +7°C° 0 mm 1 mps 633 mmHg 66%
    06:00 +6°C° 0 mm 1 mps 633 mmHg 66%
    07:00 +6°C° 0 mm 1 mps 633 mmHg 67%
    08:00 +6°C° 0 mm 2 mps 634 mmHg 60%
    09:00 +7°C° 0 mm 2 mps 634 mmHg 54%
    10:00 +8°C° 0 mm 2 mps 635 mmHg 48%
    11:00 +9°C° 0 mm 2 mps 635 mmHg 43%
    12:00 +10°C° 0 mm 2 mps 635 mmHg 38%
    13:00 +10°C° 0 mm 2 mps 635 mmHg 32%
    14:00 +12°C° 0 mm 2 mps 635 mmHg 32%
    15:00 +12°C° 0 mm 2 mps 635 mmHg 31%
    16:00 +12°C° 0 mm 2 mps 635 mmHg 31%
    17:00 +10°C° 0 mm 2 mps 635 mmHg 37%
    18:00 +11°C° 0 mm 1 mps 635 mmHg 43%
    19:00 +10°C° 0 mm 1 mps 635 mmHg 49%
    20:00 +9°C° 0 mm 1 mps 635 mmHg 50%
    21:00 +9°C° 0 mm 1 mps 635 mmHg 51%
    22:00 +8°C° 0 mm 1 mps 636 mmHg 52%
    23:00 +8°C° 0 mm 1 mps 635 mmHg 52%

    23 December, Sunday

    Time Temperature Precipitation Wind Pressure Humidity
    00:00 +8°C° 0 mm 1 mps 635 mmHg 51%
    01:00 +7°C° 0 mm 1 mps 635 mmHg 51%
    02:00 +7°C° 0 mm 1 mps 635 mmHg 51%
    03:00 +7°C° 0 mm 1 mps 635 mmHg 51%
    04:00 +6°C° 0 mm 1 mps 635 mmHg 52%
    05:00 +6°C° 0 mm 1 mps 635 mmHg 53%
    06:00 +6°C° 0 mm 1 mps 635 mmHg 54%
    07:00 +5°C° 0 mm 1 mps 635 mmHg 55%
    08:00 +7°C° 0 mm 1 mps 636 mmHg 50%
    09:00 +8°C° 0 mm 1 mps 636 mmHg 45%
    10:00 +10°C° 0 mm 1 mps 637 mmHg 40%
    11:00 +10°C° 0 mm 1 mps 637 mmHg 37%
    12:00 +11°C° 0 mm 1 mps 637 mmHg 33%
    13:00 +12°C° 0 mm 1 mps 637 mmHg 30%
    14:00 +12°C° 0 mm 1 mps 637 mmHg 29%
    15:00 +13°C° 0 mm 2 mps 636 mmHg 28%
    16:00 +13°C° 0 mm 2 mps 636 mmHg 27%
    17:00 +12°C° 0 mm 1 mps 636 mmHg 31%
    18:00 +11°C° 0 mm 1 mps 636 mmHg 36%
    19:00 +10°C° 0 mm 1 mps 636 mmHg 41%
    20:00 +9°C° 0 mm 1 mps 636 mmHg 43%
    21:00 +9°C° 0 mm 1 mps 636 mmHg 45%
    22:00 +8°C° 0 mm 1 mps 636 mmHg 46%
    23:00 +8°C° 0 mm 1 mps 636 mmHg 47%

    24 December, Monday

    Time Temperature Precipitation Wind Pressure Humidity
    00:00 +7°C° 0 mm 1 mps 636 mmHg 47%
    01:00 +7°C° 0 mm 1 mps 636 mmHg 48%
    02:00 +6°C° 0 mm 1 mps 635 mmHg 47%
    03:00 +6°C° 0 mm 1 mps 635 mmHg 47%
    04:00 +6°C° 0 mm 1 mps 635 mmHg 47%
    05:00 +4°C° 0 mm 0 mps 635 mmHg 47%
    06:00 +4°C° 0 mm 0 mps 635 mmHg 47%
    07:00 +4°C° 0 mm 0 mps 635 mmHg 47%
    08:00 +5°C° 0 mm 0 mps 636 mmHg 41%
    09:00 +7°C° 0 mm 0 mps 637 mmHg 35%
    10:00 +9°C° 0 mm 0 mps 638 mmHg 29%
    11:00 +10°C° 0 mm 0 mps 638 mmHg 27%
    12:00 +12°C° 0 mm 1 mps 637 mmHg 25%
    13:00 +12°C° 0 mm 1 mps 637 mmHg 23%
    14:00 +13°C° 0 mm 1 mps 637 mmHg 23%
    15:00 +13°C° 0 mm 1 mps 637 mmHg 23%
    16:00 +13°C° 0 mm 1 mps 637 mmHg 22%
    17:00 +12°C° 0 mm 1 mps 637 mmHg 28%
    18:00 +11°C° 0 mm 1 mps 637 mmHg 33%
    19:00 +9°C° 0 mm 0 mps 637 mmHg 39%
    20:00 +8°C° 0 mm 0 mps 637 mmHg 40%
    21:00 +8°C° 0 mm 0 mps 637 mmHg 41%
    22:00 +7°C° 0 mm 0 mps 637 mmHg 42%
    23:00 +7°C° 0 mm 0 mps 637 mmHg 42%
    Show more